Weather in Rabat

Malta     35°52′51″N   14°24′03″E
temp.,
°C
wind,
m/s
gust,
m/s
humid.,
%
clouds,
%
prec.,
mm/h
press.,
hPa
HPBL,
m
22 january, sat
sat2201:00+13nw11136312 0.4 10221362
04:00+13nw1114615 0.0 10211568
07:00+13nw1111597 0.0 10221327
10:00+13nnw776233 0.1 10231349
13:00+13ne446716 0.3 1023875
16:00+12e437114 0.1 1024732
19:00+12se22714 0.1 1024541
22:00+12sse11702 0.0 1026498
23 january, sun
sun2301:00+12s10701 0.0 1026436
04:00+12e11690 0.0 1026656
07:00+12ese22693 0.0 1026696
10:00+12ese33687 0.0 1027848
13:00+13ese446333 0.0 10271016
16:00+13ese33576 0.0 1026952
19:00+12se33587 0.0 1026903
22:00+12se22605 0.0 1026811
24 january, mon
mon2401:00+12sse11605 0.0 1025607
04:00+12w12611 0.0 1025508
07:00+12nw34670 0.0 1025821
10:00+13nnw44610 0.0 1025751
13:00+13nw55540 0.0 1024696
16:00+13nnw66520 0.0 1024824
19:00+13ne565525 0.0 10251217
22:00+11ene877116 0.1 1027946
25 january, tue
tue2501:00+10ene7765100 0.3 10281297
04:00+10ne885846 0.0 10281191
07:00+9ne88535 0.0 10301367
10:00+9ene66485 0.0 10311607
13:00+9ene43462 0.0 10311540
16:00+9n22420 0.0 10311334
19:00+9nw34440 0.0 1031924
22:00+9nw34525 0.0 10311091
26 january, wed
wed2601:00+10nw33554 0.0 1031978
04:00+10nnw33552 0.0 1030813
07:00+10nnw44560 0.0 1030675
10:00+11nw45570 0.0 1030885
13:00+11nw78641 0.0 1029986
16:00+12nw88666 0.0 10281054
19:00+12nw77685 0.0 1028929
22:00+13wnw55695 0.0 1028744